DW2150 Weather Reports


Display with metric or nautical units.
time (UTC)temp
F
wind
direction
speed
MPH
gust
MPH
rain 1hr
in
rain 24hr
in
rain mn
in
humidity
%
barometer
mb
20260506022846 77 239 0.0 0.0 0.00 0.00 0.00 93 1009.1
20260506022342 77 239 0.0 1.0 0.00 0.00 0.00 93 1009.1
20260506021823 77 239 0.0 1.0 0.00 0.00 0.00 92 1008.8
20260506021320 77 165 0.0 2.0 0.00 0.00 0.00 92 1008.8
20260506020815 77 165 1.0 2.0 0.00 0.00 0.00 92 1008.8
20260506020241 77 165 0.0 2.0 0.00 0.00 0.00 92 1008.8
20260506015738 77 177 1.0 2.0 0.00 0.00 0.00 92 1008.5
20260506015234 77 71 0.0 2.0 0.00 0.00 0.00 92 1008.5
20260506014730 77 71 0.0 2.0 0.00 0.00 0.00 91 1008.5
20260506014156 77 127 1.0 1.0 0.00 0.00 0.00 91 1008.5
20260506013621 77 153 0.0 1.0 0.00 0.00 0.00 91 1008.5
20260506013117 77 153 0.0 2.0 0.00 0.00 0.00 91 1008.5
20260506012614 77 153 0.0 2.0 0.00 0.00 0.00 91 1008.5
20260506012109 78 153 0.0 2.0 0.00 0.00 0.00 91 1008.1
20260506011534 78 153 1.0 4.0 0.00 0.00 0.00 91 1008.1
20260506011030 78 150 1.0 5.0 0.00 0.00 0.00 91 1008.1
20260506010321 78 148 1.0 5.0 0.00 0.00 0.00 91 1008.1
20260506005818 78 189 1.0 5.0 0.00 0.00 0.00 90 1008.1
20260506005315 78 151 2.0 4.0 0.00 0.00 0.00 90 1007.8
20260506004740 78 177 0.0 4.0 0.00 0.00 0.00 90 1007.8
20260506004236 78 186 1.0 4.0 0.00 0.00 0.00 90 1007.8
20260506003733 78 161 0.0 4.0 0.00 0.00 0.00 90 1007.8
20260506003230 78 152 2.0 4.0 0.00 0.00 0.00 90 1007.8
20260506002726 78 157 1.0 3.0 0.00 0.00 0.00 90 1007.8
20260506002223 78 97 1.0 2.0 0.00 0.00 0.00 90 1007.8
20260506001720 78 96 1.0 2.0 0.00 0.00 0.00 90 1007.8
20260506001145 79 111 1.0 2.0 0.00 0.00 0.00 90 1007.8
20260506000520 79 126 0.0 2.0 0.00 0.00 0.00 89 1007.8
20260506000017 79 292 0.0 2.0 0.00 0.00 0.00 89 1007.8
20260505235514 79 309 1.0 2.0 0.00 0.00 0.00 89 1007.8
20260505235011 79 309 1.0 2.0 0.00 0.00 0.00 89 1007.8
20260505234437 79 309 1.0 2.0 0.00 0.00 0.00 89 1007.8
20260505233933 79 310 1.0 2.0 0.00 0.00 0.00 89 1007.8
20260505233411 79 314 1.0 2.0 0.00 0.00 0.00 89 1007.8
20260505232908 79 193 1.0 3.0 0.00 0.00 0.00 88 1007.8
20260505232346 80 187 0.0 3.0 0.00 0.00 0.00 88 1007.8
20260505231842 80 187 1.0 3.0 0.00 0.00 0.00 88 1007.8
20260505231339 80 80 0.0 3.0 0.00 0.00 0.00 88 1007.8
20260505230836 80 114 1.0 3.0 0.00 0.00 0.00 87 1007.8
20260505230302 80 113 1.0 3.0 0.00 0.00 0.00 87 1007.8
20260505225759 80 132 1.0 3.0 0.00 0.00 0.00 87 1007.8
20260505225256 80 169 1.0 4.0 0.00 0.00 0.00 87 1007.8
20260505224651 80 156 1.0 4.0 0.00 0.00 0.00 88 1007.8
20260505224148 80 46 1.0 4.0 0.00 0.00 0.00 88 1007.8
20260505223645 80 84 1.0 4.0 0.00 0.00 0.00 88 1007.8
20260505223142 80 183 2.0 4.0 0.00 0.00 0.00 88 1007.8
20260505222639 80 237 1.0 3.0 0.00 0.00 0.00 88 1008.1
20260505222136 80 107 0.0 3.0 0.00 0.00 0.00 88 1007.8
20260505221614 80 107 1.0 3.0 0.00 0.00 0.00 88 1008.1
20260505221112 80 156 1.0 3.0 0.00 0.00 0.00 88 1007.8
20260505220608 80 167 1.0 3.0 0.00 0.00 0.00 88 1008.1
20260505220105 80 169 1.0 3.0 0.00 0.00 0.00 88 1008.1
20260505215531 80 178 1.0 3.0 0.00 0.00 0.00 88 1008.1
20260505215029 80 177 1.0 3.0 0.00 0.00 0.00 88 1008.1
20260505214525 80 133 1.0 3.0 0.00 0.00 0.00 88 1008.5
20260505214022 80 179 1.0 3.0 0.00 0.00 0.00 88 1008.5
20260505213500 81 166 1.0 3.0 0.00 0.00 0.00 88 1008.1
20260505212957 81 170 1.0 3.0 0.00 0.00 0.00 88 1008.5
20260505212454 81 213 1.0 3.0 0.00 0.00 0.00 87 1008.5
20260505211901 81 144 2.0 4.0 0.00 0.00 0.00 88 1008.5
20260505211358 81 37 2.0 4.0 0.00 0.00 0.00 88 1008.5
20260505210855 81 143 1.0 4.0 0.00 0.00 0.00 88 1008.5
20260505210322 80 134 0.0 4.0 0.00 0.00 0.00 88 1008.5
20260505205819 80 181 1.0 3.0 0.00 0.00 0.00 88 1008.8
20260505205245 81 187 1.0 3.0 0.00 0.00 0.00 88 1008.8
20260505204741 81 223 2.0 3.0 0.00 0.00 0.00 88 1008.8
20260505204238 81 106 1.0 3.0 0.00 0.00 0.00 87 1009.1
20260505203734 81 169 1.0 3.0 0.00 0.00 0.00 88 1009.1
20260505203230 81 200 2.0 3.0 0.00 0.00 0.00 87 1009.1
20260505202727 81 133 1.0 3.0 0.00 0.00 0.00 87 1009.1
20260505202223 81 126 1.0 3.0 0.00 0.00 0.00 88 1009.1
20260505201719 81 56 1.0 3.0 0.00 0.00 0.00 88 1009.1
20260505201216 81 123 1.0 3.0 0.00 0.00 0.00 87 1009.5
20260505200712 81 148 1.0 2.0 0.00 0.00 0.00 88 1009.5
20260505200208 81 216 1.0 3.0 0.00 0.00 0.00 88 1009.5
20260505195633 81 177 1.0 3.0 0.00 0.00 0.00 88 1009.5
20260505195040 81 161 1.0 3.0 0.00 0.00 0.00 88 1009.5
20260505194505 81 19 1.0 3.0 0.00 0.00 0.00 88 1009.5
20260505194002 81 183 0.0 3.0 0.00 0.00 0.00 88 1009.5
20260505193459 81 227 0.0 3.0 0.00 0.00 0.00 88 1009.5
20260505192955 81 125 1.0 3.0 0.00 0.00 0.00 88 1009.5
20260505192452 81 173 1.0 3.0 0.00 0.00 0.00 88 1009.5
20260505191950 81 161 1.0 2.0 0.00 0.00 0.00 89 1009.5
20260505191447 80 161 1.0 3.0 0.00 0.00 0.00 89 1009.5
20260505190943 80 168 1.0 3.0 0.00 0.00 0.00 89 1009.8
20260505190409 79 171 1.0 3.0 0.00 0.00 0.00 89 1009.8
20260505185907 79 126 2.0 3.0 0.00 0.00 0.00 89 1009.8
20260505185332 79 200 1.0 3.0 0.00 0.00 0.00 90 1009.8
20260505184758 79 355 1.0 2.0 0.00 0.00 0.00 90 1009.8
20260505184224 79 156 1.0 2.0 0.00 0.00 0.00 89 1009.8
20260505183650 79 119 0.0 2.0 0.00 0.00 0.00 90 1010.2
20260505183146 79 23 1.0 2.0 0.00 0.00 0.00 90 1009.8
20260505182643 79 33 1.0 2.0 0.00 0.00 0.00 90 1010.2
20260505182108 79 105 0.0 0.0 0.00 0.00 0.00 90 1010.2
20260505181605 79 155 0.0 3.0 0.00 0.00 0.00 90 1010.2
20260505181102 79 155 0.0 3.0 0.00 0.00 0.00 89 1010.2
20260505180558 79 155 0.0 3.0 0.00 0.00 0.00 89 1010.2
20260505180023 79 244 1.0 3.0 0.00 0.00 0.00 89 1010.2
20260505175519 79 211 1.0 2.0 0.00 0.00 0.00 90 1010.2
20260505174843 79 288 1.0 2.0 0.00 0.00 0.00 90 1010.2
20260505174339 79 79 1.0 2.0 0.00 0.00 0.00 90 1010.2
20260505173836 79 211 0.0 2.0 0.00 0.00 0.00 91 1010.2
20260505173333 78 211 0.0 2.0 0.00 0.00 0.00 90 1010.2
20260505172830 78 120 1.0 2.0 0.00 0.00 0.00 91 1010.5
20260505172327 78 126 0.0 4.0 0.00 0.00 0.00 90 1010.5
20260505171823 78 127 1.0 4.0 0.00 0.00 0.00 91 1010.5
20260505171320 78 128 1.0 4.0 0.00 0.00 0.00 91 1010.5
20260505170817 78 22 1.0 4.0 0.00 0.00 0.00 90 1010.5
20260505170258 78 318 2.0 2.0 0.00 0.00 0.00 90 1010.5
20260505165755 78 184 1.0 2.0 0.00 0.00 0.00 90 1010.5
20260505165252 78 138 1.0 2.0 0.00 0.00 0.00 90 1010.5
20260505164718 78 138 1.0 2.0 0.00 0.00 0.00 90 1010.5
20260505164143 78 107 1.0 2.0 0.00 0.00 0.00 90 1010.2
20260505163640 78 135 0.0 2.0 0.00 0.00 0.00 89 1010.5
20260505163136 78 135 1.0 4.0 0.00 0.00 0.00 90 1010.5
20260505162602 78 134 1.0 4.0 0.00 0.00 0.00 90 1010.5
20260505162058 78 163 1.0 4.0 0.00 0.00 0.00 90 1010.5
20260505161452 78 152 1.0 4.0 0.00 0.00 0.00 90 1010.2
20260505160948 78 161 0.0 3.0 0.00 0.00 0.00 90 1010.2
20260505160445 78 163 1.0 3.0 0.00 0.00 0.00 90 1010.2
20260505153350 78 96 1.0 2.0 0.00 0.00 0.00 90 1010.2
20260505152847 78 94 1.0 3.0 0.00 0.00 0.00 89 1010.2
20260505152343 78 355 1.0 3.0 0.00 0.00 0.00 90 1009.8
20260505151839 78 84 1.0 3.0 0.00 0.00 0.00 91 1009.8
20260505151336 77 130 2.0 3.0 0.00 0.00 0.00 91 1009.8
20260505150832 77 213 1.0 3.0 0.00 0.00 0.00 92 1009.8
20260505150327 77 177 1.0 2.0 0.00 0.00 0.00 92 1009.8
20260505140508 75 208 1.0 2.0 0.00 0.00 0.00 91 1010.2
20260505130145 74 42 1.0 2.0 0.00 0.00 0.00 93 1009.8
20260505124635 74 80 1.0 1.0 0.00 0.00 0.00 92 1009.5
20260505123959 74 74 1.0 1.0 0.00 0.00 0.00 92 1009.5
20260505123455 74 74 1.0 1.0 0.00 0.00 0.00 92 1009.5
20260505122934 74 33 1.0 1.0 0.00 0.00 0.00 92 1009.5
20260505122430 73 31 0.0 1.0 0.00 0.00 0.00 92 1009.5
20260505121927 73 32 1.0 1.0 0.00 0.00 0.00 92 1009.5
20260505121353 73 32 0.0 1.0 0.00 0.00 0.00 92 1009.5
20260505120800 73 32 0.0 1.0 0.00 0.00 0.00 92 1009.5
20260505120257 73 32 0.0 1.0 0.00 0.00 0.00 92 1009.8
20260505115754 73 32 0.0 1.0 0.00 0.00 0.00 92 1009.5
20260505115220 73 32 0.0 1.0 0.00 0.00 0.00 92 1009.5
20260505114659 73 85 1.0 1.0 0.00 0.00 0.00 92 1009.5
20260505114156 73 120 1.0 1.0 0.00 0.00 0.00 92 1009.5
20260505113634 73 120 0.0 1.0 0.00 0.00 0.00 92 1009.5
20260505113132 73 120 1.0 1.0 0.00 0.00 0.00 92 1009.1
20260505112627 73 120 1.0 1.0 0.00 0.00 0.00 92 1009.5
20260505112123 73 120 1.0 1.0 0.00 0.00 0.00 92 1009.5
20260505111549 73 120 0.0 1.0 0.00 0.00 0.00 92 1009.5
20260505110949 73 120 0.0 1.0 0.00 0.00 0.00 92 1009.8
20260505110445 73 121 1.0 1.0 0.00 0.00 0.00 92 1009.5
20260505102220 73 97 0.0 1.0 0.00 0.00 0.00 92 1009.5
20260505101645 73 97 0.0 1.0 0.00 0.00 0.00 92 1009.5
20260505101141 73 97 0.0 1.0 0.00 0.00 0.00 91 1009.5
20260505100638 73 55 0.0 0.0 0.00 0.00 0.00 91 1009.1
20260505100115 73 55 0.0 0.0 0.00 0.00 0.00 91 1009.5
20260505095612 73 55 0.0 1.0 0.00 0.00 0.00 91 1009.5
20260505094935 73 55 0.0 1.0 0.00 0.00 0.00 91 1009.5
20260505094413 73 55 0.0 1.0 0.00 0.00 0.00 91 1009.5
20260505093839 73 55 0.0 1.0 0.00 0.00 0.00 91 1009.8
20260505093335 73 55 0.0 1.0 0.00 0.00 0.00 91 1009.8
20260505092833 73 55 0.0 1.0 0.00 0.00 0.00 91 1009.5
20260505092330 73 55 0.0 1.0 0.00 0.00 0.00 91 1009.5
20260505091826 73 55 0.0 1.0 0.00 0.00 0.00 91 1009.5
20260505091323 73 304 0.0 1.0 0.00 0.00 0.00 91 1009.8
20260505090820 73 281 0.0 1.0 0.00 0.00 0.00 91 1009.8
20260505090317 73 281 0.0 1.0 0.00 0.00 0.00 91 1009.8
20260505085814 73 281 0.0 1.0 0.00 0.00 0.00 91 1009.8
20260505085311 73 281 0.0 1.0 0.00 0.00 0.00 91 1009.8
20260505084808 73 281 0.0 1.0 0.00 0.00 0.00 91 1009.5
20260505084305 73 281 0.0 1.0 0.00 0.00 0.00 91 1009.5
20260505083802 73 281 0.0 1.0 0.00 0.00 0.00 91 1009.5
20260505083258 73 281 1.0 1.0 0.00 0.00 0.00 91 1009.8
20260505082756 73 281 1.0 1.0 0.00 0.00 0.00 91 1009.5
20260505082253 73 281 0.0 1.0 0.00 0.00 0.00 91 1009.8
20260505081749 73 281 0.0 1.0 0.00 0.00 0.00 90 1009.8
20260505081246 73 281 1.0 1.0 0.00 0.00 0.00 90 1009.8
20260505080743 73 281 0.0 1.0 0.00 0.00 0.00 90 1009.8
20260505080239 73 281 1.0 1.0 0.00 0.00 0.00 90 1009.8
20260505075736 72 282 0.0 1.0 0.00 0.00 0.00 90 1009.8
20260505075234 72 282 0.0 1.0 0.00 0.00 0.00 90 1009.8
20260505074731 72 282 1.0 1.0 0.00 0.00 0.00 90 1010.2
20260505074228 72 282 0.0 1.0 0.00 0.00 0.00 90 1009.8
20260505073725 72 281 1.0 2.0 0.00 0.00 0.00 90 1009.8
20260505073222 72 282 1.0 2.0 0.00 0.00 0.00 90 1010.2
20260505072718 72 282 0.0 2.0 0.00 0.00 0.00 91 1010.2
20260505072144 72 53 0.0 2.0 0.00 0.00 0.00 90 1010.2
20260505071642 72 196 1.0 2.0 0.00 0.00 0.00 91 1010.2
20260505071107 72 196 1.0 1.0 0.00 0.00 0.00 91 1010.2
20260505070604 71 196 0.0 1.0 0.00 0.00 0.00 91 1010.2
20260505070042 71 196 0.0 1.0 0.00 0.00 0.00 91 1010.5
20260505065539 71 196 0.0 1.0 0.00 0.00 0.00 91 1010.5
20260505065037 71 46 0.0 0.0 0.00 0.00 0.00 91 1010.5
20260505064534 71 46 0.0 0.0 0.00 0.00 0.00 91 1010.8
20260505064031 71 46 0.0 1.0 0.00 0.00 0.00 90 1010.8
20260505063528 71 46 0.0 1.0 0.00 0.00 0.00 90 1010.8
20260505063025 71 46 0.0 1.0 0.00 0.00 0.00 90 1010.8
20260505062420 71 46 1.0 1.0 0.00 0.00 0.00 90 1010.8
20260505061917 71 18 0.0 0.0 0.00 0.00 0.00 90 1010.8
20260505061414 71 18 0.0 0.0 0.00 0.00 0.00 90 1011.2
20260505060852 71 18 0.0 0.0 0.00 0.00 0.00 90 1011.2
20260505060349 71 18 0.0 0.0 0.00 0.00 0.00 90 1010.8
20260505055846 71 18 0.0 0.0 0.00 0.00 0.00 90 1011.2
20260505055343 71 18 0.0 0.0 0.00 0.00 0.00 90 1011.2
20260505054839 71 18 0.0 0.0 0.00 0.00 0.00 90 1011.2
20260505054247 71 18 0.0 0.0 0.00 0.00 0.00 90 1011.2
20260505053744 71 30 0.0 0.0 0.00 0.00 0.00 90 1011.2
20260505053240 71 346 0.0 0.0 0.00 0.00 0.00 90 1011.2
20260505052737 71 346 0.0 0.0 0.00 0.00 0.00 90 1011.2
20260505052132 71 346 0.0 0.0 0.00 0.00 0.00 90 1011.2
20260505051611 71 346 0.0 0.0 0.00 0.00 0.00 90 1011.2
20260505051107 71 346 0.0 0.0 0.00 0.00 0.00 90 1011.2
20260505050558 71 346 0.0 0.0 0.00 0.00 0.00 90 1011.2
20260505041438 70 346 0.0 0.0 0.00 0.00 0.00 89 1011.5
20260505040935 70 346 0.0 0.0 0.00 0.00 0.00 89 1011.5
20260505040431 70 346 0.0 0.0 0.00 0.00 0.00 89 1011.9
20260505035928 70 346 0.0 0.0 0.00 0.00 0.00 89 1011.9
20260505035354 70 346 0.0 0.0 0.00 0.00 0.00 89 1011.9
20260505034820 70 346 0.0 0.0 0.00 0.00 0.00 88 1011.9
20260505034317 71 346 0.0 1.0 0.00 0.00 0.00 88 1011.9
20260505033814 71 346 0.0 1.0 0.00 0.00 0.00 88 1011.9
20260505033311 71 346 0.0 1.0 0.00 0.00 0.00 88 1011.9
20260505032808 71 346 0.0 1.0 0.00 0.00 0.00 88 1011.9
20260505032305 71 346 0.0 0.0 0.00 0.00 0.00 87 1011.9
20260505031731 71 346 0.0 0.0 0.00 0.00 0.00 87 1011.9
20260505031228 71 346 0.0 0.0 0.00 0.00 0.00 87 1011.9
20260505030725 71 346 0.0 1.0 0.00 0.00 0.00 87 1011.9
20260505030222 71 346 0.0 1.0 0.00 0.00 0.00 87 1011.9
20260505025719 71 346 0.0 2.0 0.00 0.00 0.00 87 1011.9
20260505025216 71 346 0.0 3.0 0.00 0.00 0.00 87 1011.9
20260505024712 71 304 0.0 3.0 0.00 0.00 0.00 86 1011.9
20260505024210 71 304 0.0 3.0 0.00 0.00 0.00 86 1011.9
20260505023706 71 98 0.0 0.0 0.00 0.00 0.00 86 1011.9
20260505023203 71 91 0.0 0.0 0.00 0.00 0.00 86 1011.9